Waarnemingen

Advertentie
Mijn weer
Dinard, Frankrijk (7125): temperatuur & dauwpunt: 18.06.2019 11:00:00 - 24.06.2019 11:00:00 (CEST)Dinard, Frankrijk (7125): temperatuur 5cm: 18.06.2019 11:00:00 - 24.06.2019 11:00:00 (CEST)Dinard, Frankrijk (7125): temperatuur -20cm: 18.06.2019 11:00:00 - 24.06.2019 11:00:00 (CEST)Dinard, Frankrijk (7125): windsnelheid & windstoten: 18.06.2019 11:00:00 - 24.06.2019 11:00:00 (CEST)Dinard, Frankrijk (7125): windrichting: 18.06.2019 11:00:00 - 24.06.2019 11:00:00 (CEST)Dinard, Frankrijk (7125): luchtdruk: 18.06.2019 11:00:00 - 24.06.2019 11:00:00 (CEST)Dinard, Frankrijk (7125): zicht: 18.06.2019 11:00:00 - 24.06.2019 11:00:00 (CEST)Dinard, Frankrijk (7125): Zonneschijnduur: 18.06.2019 11:00:00 - 24.06.2019 11:00:00 (CEST)Dinard, Frankrijk (7125): neerslag: 18.06.2019 11:00:00 - 24.06.2019 11:00:00 (CEST)
Datum & Tijd tt [°C] td [°C] tt 5cm [°C] tt -20cm [°C] ff [km/u] ff [kn] fx [km/u] fx [kn] dd ppp [hPa] vv [km] sd [min] rr [mm]
24.06.2019 11:00:00 15,9 14,4 15,1 19,0 11 6 17 9 ZO 1017,6 35 0 0,6
24.06.2019 10:00:00 15,7 13,9 15,0 19,1 8 4 13 7 ZO 1016,5 13 0 0,6
24.06.2019 09:00:00 15,2 13,4 15,4 19,2 5 3 17 9 ZW 1016,1 16 0 0,8
24.06.2019 08:00:00 16,5 15,9 16,0 19,3 13 7 19 11 OZO 1015,4 8 0 0,4
24.06.2019 07:00:00 16,2 15,6 15,7 19,5 2 1 9 5 ZZW 1016,0 6 0 1,6
24.06.2019 06:00:00 16,3 15,5 15,3 19,6 5 3 11 6 ZZO 1016,1 7 0 0,0
24.06.2019 05:00:00 16,2 15,4 14,9 19,8 9 5 13 7 ZO 1014,9 8 0 0,0
24.06.2019 04:00:00 15,8 14,8 14,4 19,9 5 3 13 7 WNW 1014,5 9 0 0,0
24.06.2019 03:00:00 17,1 15,6 15,1 20,1 4 2 18 10 NW 1014,3 13 0 0,0
24.06.2019 02:00:00 18,2 16,4 16,5 20,2 9 5 18 10 W 1013,6 15 0 0,0
24.06.2019 01:00:00 18,5 16,8 17,5 20,4 9 5 18 10 WZW 1013,3 12 0 0,0
24.06.2019 00:00:00 18,4 16,6 17,3 20,5 10 5 18 10 WZW 1012,4 14 0 0,0
23.06.2019 23:00:00 18,4 16,6 17,6 20,6 8 5 12 7 ZW 1011,8 17 0 0,0
23.06.2019 22:00:00 20,9 17,7 19,1 20,5 4 2 10 6 WZW 1011,2 27 14 0,0
23.06.2019 21:00:00 23,0 18,5 22,7 20,4 9 5 13 7 WNW 1011,1 34 2 0,0
23.06.2019 20:00:00 24,3 18,2 24,4 20,2 7 4 13 7 NO 1010,2 40 6 0,0
23.06.2019 19:00:00 24,4 18,1 25,4 20,0 9 5 18 10 NO 1010,4 34 15 0,0
23.06.2019 18:00:00 22,8 17,0 24,0 19,7 14 8 24 13 N 1011,1 40 15 0,0
23.06.2019 17:00:00 26,1 17,2 28,2 19,3 13 7 23 12 ONO 1011,1 41 30 0,0
23.06.2019 16:00:00 25,7 17,6 27,5 19,0 16 8 25 13 OZO 1011,6 44 31 0,0
23.06.2019 15:00:00 23,9 16,7 26,3 18,6 11 6 32 17 O 1012,1 49 23 0,0
23.06.2019 14:00:00 23,1 16,6 24,2 18,4 13 7 21 12 O 1012,3 20 15 0,0
23.06.2019 13:00:00 21,4 16,4 21,7 18,2 14 7 29 15 OZO 1012,6 29 11 0,0
23.06.2019 12:00:00 20,3 16,3 19,8 18,2 8 4 12 6 O 1013,6 33 3 0,0
23.06.2019 11:00:00 19,0 15,1 19,1 18,2 3 2 18 10 Z 1014,3 30 0 0,0
23.06.2019 10:00:00 18,5 14,6 16,9 18,2 13 7 20 11 O 1013,5 37 0 0,0
23.06.2019 09:00:00 16,6 13,1 16,1 18,3 11 6 20 11 O 1014,0 37 0 0,0
23.06.2019 08:00:00 16,2 12,7 16,1 18,4 13 7 22 12 O 1013,5 44 18 0,0
23.06.2019 07:00:00 15,8 12,2 14,6 18,6 14 8 21 12 O 1013,9 42 10 0,0
23.06.2019 06:00:00 15,6 11,8 14,4 18,8 16 9 23 13 O 1013,9 45 0 0,0
23.06.2019 05:00:00 15,4 11,6 14,3 18,9 14 7 23 12 O 1014,4 47 0 0,0
23.06.2019 04:00:00 15,7 11,5 14,8 19,1 13 7 27 15 O 1014,6 49 0 0,0
23.06.2019 03:00:00 16,3 11,7 15,7 19,3 16 9 24 13 O 1015,1 52 0 0,0
23.06.2019 02:00:00 16,5 11,4 15,5 19,5 17 9 26 14 O 1016,0 54 0 0,0
23.06.2019 01:00:00 16,8 11,7 15,8 19,7 17 9 25 14 O 1016,3 58 0 0,0
23.06.2019 00:00:00 17,1 12,8 16,0 19,8 14 8 26 14 O 1016,5 54 0 0,0
22.06.2019 23:00:00 17,8 12,9 15,1 19,9 14 7 23 12 ONO 1016,8 54 0 0,0
22.06.2019 22:00:00 18,2 13,5 16,2 19,9 7 4 14 8 NNO 1016,4 49 18 0,0
22.06.2019 21:00:00 19,9 13,4 19,7 19,9 10 5 18 10 NNO 1016,3 56 24 0,0
22.06.2019 20:00:00 22,1 12,1 23,1 19,7 11 6 26 14 ONO 1016,2 53 60 0,0
22.06.2019 19:00:00 21,1 12,5 21,5 19,5 14 8 24 13 NNO 1016,9 47 32 0,0
22.06.2019 18:00:00 23,2 10,6 23,8 19,2 16 8 30 16 O 1016,9 50 27 0,0
22.06.2019 17:00:00 23,3 10,0 25,0 18,8 13 7 27 15 OZO 1017,1 60 47 0,0
22.06.2019 16:00:00 22,9 8,6 23,9 18,3 10 5 26 14 OZO 1017,8 56 28 0,0
22.06.2019 15:00:00 22,5 8,9 25,8 17,8 16 8 26 14 OZO 1018,2 52 48 0,0
22.06.2019 14:00:00 22,2 9,7 23,3 17,4 13 7 25 14 ZO 1018,7 60 40 0,0
22.06.2019 13:00:00 22,2 11,3 26,4 17,1 15 8 29 15 ZO 1019,2 37 60 0,0
22.06.2019 12:00:00 21,0 11,3 24,7 16,9 16 9 29 16 Z 1019,5 20 60 0,0
22.06.2019 11:00:00 19,9 11,4 19,1 16,9 14 8 27 14 ZO 1019,7 27 60 0,0
22.06.2019 10:00:00 17,5 11,5 16,3 17,0 11 6 24 13 ZO 1020,2 20 60 0,0
22.06.2019 09:00:00 15,2 10,4 14,3 17,1 15 8 24 13 O 1020,6 23 60 0,0
22.06.2019 08:00:00 13,5 10,8 10,8 17,3 11 6 16 9 O 1020,7 24 58 0,0
22.06.2019 07:00:00 11,4 10,9 7,7 17,5 11 6 15 8 O 1021,0 18 15 0,0
22.06.2019 06:00:00 11,5 11,2 6,0 17,8 5 3 9 5 O 1021,2 11 0 0,2
22.06.2019 05:00:00 10,5 10,2 5,3 18,1 5 3 8 4 ONO 1021,3 0,4 0 0,0
22.06.2019 04:00:00 10,1 9,8 5,7 18,4 3 2 7 4 NW 1021,7 1,9 0 0,0
22.06.2019 03:00:00 9,9 9,1 5,7 18,8 0 0 9 5 N 1021,9 0,2 0 0,0
22.06.2019 02:00:00 11,1 10,2 6,2 19,1 7 4 11 6 NO 1022,3 26 0 0,0
22.06.2019 01:00:00 11,4 10,6 5,9 19,4 6 3 8 5 N 1022,6 26 0 0,0
22.06.2019 00:00:00 11,6 10,3 6,9 19,6 4 2 9 5 N 1022,9 21 0 0,0
21.06.2019 23:00:00 12,7 10,9 10,3 19,8 5 3 16 8 N 1022,8 39 0 0,0
21.06.2019 22:00:00 13,5 11,0 12,8 19,8 11 6 15 8 N 1022,6 48 45 0,0
21.06.2019 21:00:00 15,2 10,8 17,2 19,8 11 6 24 13 N 1022,5 47 60 0,0
21.06.2019 20:00:00 16,0 10,3 19,4 19,7 16 9 26 14 N 1022,4 45 60 0,0
21.06.2019 19:00:00 17,0 8,7 22,9 19,4 18 10 27 14 N 1022,1 42 60 0,0
21.06.2019 18:00:00 17,4 8,5 25,8 18,9 16 8 27 15 N 1022,0 47 60 0,0
21.06.2019 17:00:00 17,7 10,1 25,8 18,4 18 10 28 15 NNW 1022,0 54 60 0,0
21.06.2019 16:00:00 17,6 10,5 24,7 17,8 15 8 27 15 N 1022,1 60 60 0,0
21.06.2019 15:00:00 17,2 10,3 24,1 17,2 16 9 25 13 N 1022,1 49 60 0,0
21.06.2019 14:00:00 17,2 10,1 24,7 16,6 13 7 25 13 N 1022,1 56 60 0,0
21.06.2019 13:00:00 17,2 10,1 20,8 16,3 13 7 22 12 N 1022,1 60 49 0,0
21.06.2019 12:00:00 16,5 10,8 19,7 16,1 12 6 21 11 N 1022,1 45 52 0,0
21.06.2019 11:00:00 15,2 10,6 16,3 16,1 13 7 29 15 NW 1021,9 54 31 0,0
21.06.2019 10:00:00 15,4 11,4 15,0 16,1 11 6 19 10 NW 1021,7 50 48 0,0
21.06.2019 09:00:00 13,6 11,6 12,3 16,3 9 5 14 7 W 1021,5 20 60 0,0
21.06.2019 08:00:00 11,2 10,7 9,0 16,4 4 2 11 6 WZW 1021,3 14 60 0,0
21.06.2019 07:00:00 9,1 8,8 6,4 16,7 6 3 10 6 ZW 1020,9 4,1 26 0,2
21.06.2019 06:00:00 8,4 8,1 5,8 17,0 6 4 10 5 ZZW 1020,8 0,5 0 0,0
21.06.2019 05:00:00 9,2 8,9 6,0 17,2 5 3 9 5 WZW 1020,4 6 0 0,0
21.06.2019 04:00:00 8,9 8,3 6,3 17,4 5 3 9 5 ZZW 1020,5 1,5 0 0,0
21.06.2019 03:00:00 9,4 8,8 6,8 17,7 6 3 9 5 ZW 1020,3 0,9 0 0,0
21.06.2019 02:00:00 9,7 8,8 7,3 17,9 6 4 8 4 ZW 1020,4 9 0 0,0
21.06.2019 01:00:00 11,0 9,7 8,2 18,1 5 3 16 9 ZZW 1020,3 28 0 0,0
21.06.2019 00:00:00 12,3 10,2 10,8 18,2 11 6 21 11 NW 1019,8 38 0 0,0
20.06.2019 23:00:00 13,0 10,7 11,7 18,4 13 7 27 14 NW 1019,3 38 0 0,0
20.06.2019 22:00:00 13,7 10,7 12,9 18,4 14 7 27 14 NNW 1019,0 42 16 0,0
20.06.2019 21:00:00 15,0 10,0 15,4 18,4 16 9 25 14 NNW 1018,7 50 26 0,0
20.06.2019 20:00:00 14,9 10,7 16,1 18,3 15 8 25 13 NNW 1018,5 39 8 0,0
20.06.2019 19:00:00 16,4 10,9 18,7 18,2 16 9 26 14 N 1018,3 50 28 0,0
20.06.2019 18:00:00 16,3 9,9 20,4 18,1 15 8 25 14 NNW 1018,1 56 22 0,0
20.06.2019 17:00:00 16,4 10,5 17,7 18,0 12 6 21 11 N 1018,0 49 1 0,0
20.06.2019 16:00:00 15,3 10,3 17,0 17,8 13 7 22 12 NNW 1018,1 48 0 0,0
20.06.2019 15:00:00 15,5 12,1 16,9 17,5 14 7 24 13 NNW 1017,8 60 0 0,0
20.06.2019 14:00:00 16,3 10,6 19,1 17,2 16 9 28 15 NNW 1017,6 59 0 0,0
20.06.2019 13:00:00 17,8 9,9 23,0 16,9 14 8 30 16 NW 1017,2 60 52 0,0
20.06.2019 12:00:00 16,9 10,7 16,9 16,7 15 8 29 16 NW 1017,0 43 46 0,0
20.06.2019 11:00:00 16,1 10,4 16,1 16,7 16 9 29 16 WNW 1016,9 46 48 0,0
20.06.2019 10:00:00 15,6 11,4 15,0 16,8 18 10 29 15 WNW 1016,6 49 37 0,0
20.06.2019 09:00:00 14,0 11,3 13,0 16,9 11 6 18 10 W 1016,5 11 60 0,0
20.06.2019 08:00:00 11,9 10,6 10,5 17,1 9 5 16 8 WZW 1016,2 10 46 0,0
20.06.2019 07:00:00 10,5 9,7 10,0 17,3 10 5 13 7 ZW 1015,8 12 0 0,0
20.06.2019 06:00:00 10,8 9,9 9,6 17,4 6 4 13 7 WZW 1015,4 20 0 0,0
20.06.2019 05:00:00 11,7 10,3 11,1 17,6 8 4 17 9 W 1015,1 23 0 0,0
20.06.2019 04:00:00 12,4 10,6 11,9 17,8 13 7 26 14 WNW 1014,8 25 0 0,0
20.06.2019 03:00:00 13,0 10,9 12,6 18,0 16 9 29 16 WNW 1014,7 25 0 0,0
20.06.2019 02:00:00 13,3 11,2 13,0 18,1 17 9 33 18 WNW 1014,7 23 0 0,0
20.06.2019 01:00:00 13,7 11,6 13,4 18,3 19 10 30 16 WNW 1014,4 23 0 0,0
20.06.2019 00:00:00 13,8 11,7 13,5 18,5 14 7 24 13 WNW 1014,0 28 0 0,0
19.06.2019 23:00:00 13,8 11,0 13,6 18,6 14 8 26 14 WNW 1013,8 38 0 0,0
19.06.2019 22:00:00 14,0 11,3 13,9 18,8 16 9 29 16 WNW 1013,2 39 0 0,0
19.06.2019 21:00:00 14,3 11,8 14,7 18,8 17 9 35 19 NW 1012,6 47 0 0,0
19.06.2019 20:00:00 14,5 12,4 15,3 18,8 21 12 40 21 NW 1012,2 36 0 0,0
19.06.2019 19:00:00 14,5 12,9 15,3 18,7 20 11 31 17 NW 1011,9 31 0 0,2
19.06.2019 18:00:00 15,1 13,6 15,9 18,5 20 11 30 16 NNW 1011,5 9 2 0,0
19.06.2019 17:00:00 17,1 14,0 19,7 18,2 16 8 26 14 NW 1011,1 16 22 0,0
19.06.2019 16:00:00 18,9 15,2 21,7 17,9 16 9 27 15 NW 1010,9 12 20 0,0
19.06.2019 15:00:00 18,4 15,3 21,2 17,7 17 9 27 15 NW 1010,8 10 19 0,0
19.06.2019 14:00:00 17,7 15,9 16,9 17,6 16 8 26 14 WNW 1010,5 7 4 0,0
19.06.2019 13:00:00 15,5 14,5 15,6 17,5 16 8 21 12 NW 1010,2 6 0 0,0
19.06.2019 12:00:00 15,1 14,5 15,3 17,5 15 8 25 14 WNW 1009,8 3,7 0 0,2
19.06.2019 11:00:00 15,1 14,1 15,5 17,6 14 7 20 11 WNW 1009,3 8 0 0,0
19.06.2019 10:00:00 15,2 14,1 15,4 17,6 10 5 15 8 W 1009,1 8 0 0,0
19.06.2019 09:00:00 14,9 14,3 14,9 17,7 5 3 15 8 W 1008,9 8 0 0,0
19.06.2019 08:00:00 14,7 14,2 14,4 17,8 5 3 23 12 WNW 1008,5 5 0 0,0
19.06.2019 07:00:00 14,4 13,8 14,3 17,9 6 3 21 11 NW 1008,1 5 0 0,2
19.06.2019 06:00:00 15,5 14,5 14,5 18,0 11 6 27 14 N 1007,6 14 0 2,2
19.06.2019 05:00:00 14,6 14,0 13,6 18,2 21 12 31 17 W 1008,4 6 0 0,0
19.06.2019 04:00:00 14,4 13,4 13,5 18,3 3 2 14 8 ZZW 1007,9 8 0 0,0
19.06.2019 03:00:00 14,9 13,6 14,1 18,5 6 4 28 15 O 1008,0 13 0 0,0
19.06.2019 02:00:00 14,3 13,3 13,6 18,7 8 5 19 10 NW 1008,0 11 0 0,0
19.06.2019 01:00:00 14,4 13,4 13,6 18,8 12 7 19 11 NW 1008,8 9 0 0,0
19.06.2019 00:00:00 14,1 13,3 13,5 18,9 8 4 14 8 WNW 1008,8 8 0 0,0
18.06.2019 23:00:00 14,5 13,2 13,7 19,0 6 4 14 8 NW 1009,2 11 0 0,0
18.06.2019 22:00:00 15,7 13,9 15,3 19,0 11 6 22 12 N 1008,9 16 34 0,0
18.06.2019 21:00:00 17,4 14,5 17,6 18,9 16 8 31 17 N 1008,7 23 9 0,0
18.06.2019 20:00:00 17,5 14,6 18,6 18,7 16 9 28 15 NNO 1009,1 19 48 0,0
18.06.2019 19:00:00 18,9 15,4 22,9 18,3 17 9 23 13 NNO 1009,5 19 58 0,0
18.06.2019 18:00:00 20,0 16,4 24,1 18,0 16 9 25 13 N 1009,7 19 47 0,0
18.06.2019 17:00:00 20,8 16,0 26,2 17,5 12 7 24 13 N 1009,6 30 60 0,0
18.06.2019 16:00:00 20,4 15,4 20,1 17,3 13 7 23 12 NO 1009,8 20 38 0,0
18.06.2019 15:00:00 18,4 15,5 - - 13 7 21 11 NO 1010,5 21 - 0,0
18.06.2019 14:00:00 17,0 15,3 15,6 17,1 11 6 26 14 NNO 1010,8 16 0 0,0
18.06.2019 13:00:00 15,2 14,2 - - 18 10 31 17 NNO 1010,8 7 - 3,0
18.06.2019 12:00:00 15,7 13,7 15,5 17,1 14 8 26 14 ZW 1013,8 17 0 0,0
18.06.2019 11:00:00 16,2 12,7 16,3 17,1 13 7 30 16 ONO 1011,7 27 0 0,0

tt = temperatuur
td = dauwpunt
tt 5cm = temperatuur 5cm
tt -20cm = temperatuur -20cm
ff = windsnelheid
fx = windstoten
dd = windrichting
ppp = luchtdruk
vv = zicht
sd = Zonneschijnduur
rr = neerslag

Weerstations in de omgeving